Date String (YYYY-MM-DD hh:mm:ss) UTC,Instrument flags,Ambient pressure (hPa),Sample flow (lpm),Bypass flow (lpm),Sample temperature (°C),Ambient temperature (°C),ASC tube jacket temperature (°C),LED temperature (°C),Box temperature (°C),Sample RH (%),Span deviation,Mass concentration (μg/m³),Mass concentration (μg/m³),Mass concentration (μg/m³)
DateTimeUTC,F1_M11,P_M11,Q1_M11,Q2_M11,T1_M11,T2_M11,T3_M11,T4_M11,T5_M11,U1_M11,ZSPAN_M11,X0_M11,X2_M11,X1_M11
2023-03-03 04:00:00,,0815.4,5.02,0.00,22.4,20.8,00.0,31.1,24.1,13.8,-002.7,0017.60,0007.16,0006.42
2023-03-03 04:01:00,,0815.2,4.99,0.00,22.4,20.7,00.0,31.1,24.1,13.9,-002.9,0017.93,0007.19,0006.46
2023-03-03 04:02:00,,0815.1,5.00,0.00,22.4,20.7,00.0,31.1,24.1,13.9,-002.5,0018.48,0007.25,0006.49
2023-03-03 04:03:00,,0815.1,5.00,0.00,22.4,20.7,00.0,31.1,24.1,14.0,-002.6,0018.37,0007.32,0006.52
2023-03-03 04:04:00,,0815.0,5.00,0.00,22.3,20.7,00.0,31.1,24.1,14.0,-003.1,0018.13,0007.28,0006.53
2023-03-03 04:05:00,,0815.0,4.99,0.00,22.3,20.6,00.0,31.1,24.1,14.0,-003.0,0017.45,0007.28,0006.54
2023-03-03 04:06:00,,0815.0,4.99,0.00,22.3,20.6,00.0,31.1,24.0,14.2,-002.6,0016.64,0007.30,0006.58
2023-03-03 04:07:00,,0815.0,4.99,0.00,22.3,20.6,00.0,31.1,24.0,14.4,-002.7,0016.35,0007.32,0006.61
2023-03-03 04:08:00,,0815.0,5.00,0.00,22.3,20.6,00.0,31.1,24.0,14.3,-002.5,0015.59,0007.37,0006.64
2023-03-03 04:09:00,,0815.0,5.01,0.00,22.3,20.5,00.0,31.1,24.0,14.2,-002.4,0015.68,0007.39,0006.67
2023-03-03 04:10:00,,0815.1,5.01,0.00,22.3,20.6,00.0,31.1,24.0,14.2,-002.2,0015.42,0007.39,0006.69
2023-03-03 04:11:00,,0815.1,5.00,0.00,22.3,20.6,00.0,31.1,24.0,14.1,-002.1,0014.88,0007.42,0006.71
2023-03-03 04:12:00,,0815.0,5.00,0.00,22.2,20.5,00.0,31.1,23.9,14.1,-001.8,0015.30,0007.44,0006.70
2023-03-03 04:13:00,,0815.0,4.99,0.00,22.2,20.5,00.0,31.0,23.9,14.0,-002.0,0014.86,0007.42,0006.68
2023-03-03 04:14:00,,0815.0,5.00,0.00,22.2,20.5,00.0,31.0,23.9,14.0,-001.8,0014.95,0007.38,0006.68
2023-03-03 04:15:00,,0815.1,4.97,0.00,22.2,20.5,00.0,31.0,23.9,13.9,-001.2,0015.00,0007.38,0006.66
2023-03-03 04:16:00,,0815.1,5.01,0.00,22.2,20.5,00.0,31.0,23.9,14.0,-000.9,0014.82,0007.36,0006.65
2023-03-03 04:17:00,,0815.1,5.00,0.00,22.2,20.5,00.0,31.0,23.9,14.0,-001.1,0015.28,0007.36,0006.64
2023-03-03 04:18:00,,0815.1,5.00,0.00,22.2,21.0,00.0,31.0,24.1,13.9,-001.3,0016.01,0007.37,0006.61
2023-03-03 04:19:00,,0815.1,5.00,0.00,22.3,22.1,00.0,31.0,24.3,13.8,-001.7,0015.92,0007.36,0006.58
2023-03-03 04:20:00,,0815.1,5.01,0.00,22.4,23.0,00.0,31.0,24.5,13.7,-001.2,0015.79,0007.33,0006.57
2023-03-03 04:21:00,,0815.0,4.98,0.00,22.5,22.8,00.0,31.1,24.5,13.7,-001.4,0015.88,0007.31,0006.56
2023-03-03 04:22:00,,0815.1,4.99,0.00,22.5,22.4,00.0,31.1,24.4,13.7,-001.3,0016.48,0007.31,0006.54
2023-03-03 04:23:00,,0815.0,5.00,0.00,22.5,22.0,00.0,31.1,24.4,13.7,-001.2,0016.51,0007.29,0006.54
2023-03-03 04:24:00,,0814.9,5.00,0.00,22.5,21.8,00.0,31.1,24.3,13.6,-000.7,0016.88,0007.29,0006.53
2023-03-03 04:25:00,,0814.9,5.01,0.00,22.5,21.6,00.0,31.2,24.3,13.6,-000.8,0016.80,0007.30,0006.53
2023-03-03 04:26:00,,0814.9,4.99,0.00,22.5,21.4,00.0,31.2,24.3,13.6,-000.8,0017.60,0007.34,0006.55
2023-03-03 04:27:00,,0814.9,5.00,0.00,22.5,21.3,00.0,31.2,24.3,13.6,-000.9,0018.26,0007.40,0006.57
2023-03-03 04:28:00,,0814.9,5.00,0.00,22.5,21.2,00.0,31.2,24.3,13.6,-001.2,0017.90,0007.38,0006.58
2023-03-03 04:29:00,,0814.9,5.01,0.00,22.5,21.2,00.0,31.2,24.2,13.6,-000.9,0017.00,0007.35,0006.60
2023-03-03 04:30:00,,0814.9,4.97,0.00,22.5,21.1,00.0,31.2,24.2,13.6,-000.5,0016.85,0007.34,0006.62
2023-03-03 04:31:00,,0814.9,5.00,0.00,22.5,21.1,00.0,31.2,24.2,13.6,-000.8,0016.34,0007.32,0006.62
2023-03-03 04:32:00,,0814.9,5.01,0.00,22.5,21.0,00.0,31.2,24.2,13.7,-000.7,0015.65,0007.35,0006.65
2023-03-03 04:33:00,,0814.9,5.00,0.00,22.5,21.0,00.0,31.2,24.2,13.7,-000.8,0015.06,0007.35,0006.68
2023-03-03 04:34:00,,0814.8,4.99,0.00,22.5,21.0,00.0,31.2,24.2,13.7,-000.9,0014.36,0007.33,0006.69
2023-03-03 04:35:00,,0814.8,5.01,0.00,22.4,20.9,00.0,31.2,24.2,13.7,-001.0,0013.79,0007.30,0006.70
2023-03-03 04:36:00,,0814.9,5.00,0.00,22.4,20.9,00.0,31.2,24.1,13.6,-001.0,0013.37,0007.27,0006.69
2023-03-03 04:37:00,,0814.9,5.01,0.00,22.4,20.9,00.0,31.2,24.1,13.6,-001.2,0012.38,0007.22,0006.67
2023-03-03 04:38:00,,0814.9,4.98,0.00,22.4,20.9,00.0,31.2,24.1,13.6,-001.4,0012.46,0007.18,0006.67
2023-03-03 04:39:00,,0814.9,4.99,0.00,22.4,20.9,00.0,31.2,24.1,13.7,-001.1,0012.74,0007.17,0006.67
2023-03-03 04:40:00,,0814.9,5.01,0.00,22.4,20.8,00.0,31.2,24.1,13.7,-001.0,0012.75,0007.19,0006.65
2023-03-03 04:41:00,,0814.9,5.01,0.00,22.4,20.8,00.0,31.2,24.1,13.8,-001.3,0012.62,0007.17,0006.66
2023-03-03 04:42:00,,0814.9,5.02,0.00,22.4,20.7,00.0,31.2,24.0,13.7,-001.4,0012.67,0007.20,0006.67
2023-03-03 04:43:00,,0814.8,5.00,0.00,22.3,20.7,00.0,31.2,24.0,13.7,-001.5,0012.64,0007.17,0006.65
2023-03-03 04:44:00,,0814.7,5.00,0.00,22.3,20.7,00.0,31.2,24.0,13.7,-001.3,0012.49,0007.14,0006.62
2023-03-03 04:45:00,,0815.0,5.00,0.00,22.3,20.6,00.0,31.1,24.0,13.7,-001.5,0012.47,0007.13,0006.61
2023-03-03 04:46:00,,0815.1,5.00,0.00,22.3,20.6,00.0,31.1,24.0,13.7,-001.2,0012.61,0007.18,0006.61
2023-03-03 04:47:00,,0815.2,5.00,0.00,22.3,20.6,00.0,31.1,24.0,13.7,-000.8,0012.62,0007.18,0006.61
2023-03-03 04:48:00,,0814.7,5.00,0.00,22.3,20.6,00.0,31.1,24.0,13.7,-000.5,0012.56,0007.16,0006.60
2023-03-03 04:49:00,,0814.7,5.01,0.00,22.3,20.6,00.0,31.1,24.0,13.7,-001.1,0011.63,0007.11,0006.57
2023-03-03 04:50:00,,0814.8,4.99,0.00,22.3,20.6,00.0,31.1,24.0,13.6,-001.6,0011.18,0007.08,0006.56
2023-03-03 04:51:00,,0814.7,5.00,0.00,22.3,20.5,00.0,31.1,24.0,13.7,-001.6,0011.59,0007.05,0006.55
2023-03-03 04:52:00,,0814.7,5.01,0.00,22.2,20.5,00.0,31.1,23.9,13.8,-001.5,0011.78,0007.03,0006.53
2023-03-03 04:53:00,,0814.8,4.99,0.00,22.2,20.8,00.0,31.0,24.0,13.7,-001.5,0011.71,0006.98,0006.51
2023-03-03 04:54:00,,0815.0,4.98,0.00,22.3,21.9,00.0,31.0,24.2,13.6,-001.3,0011.86,0006.99,0006.50
2023-03-03 04:55:00,,0815.1,5.00,0.00,22.4,22.8,00.0,31.1,24.4,13.5,-001.8,0011.96,0006.98,0006.49
2023-03-03 04:56:00,,0815.2,5.02,0.00,22.5,22.8,00.0,31.1,24.5,13.5,-001.5,0012.15,0007.01,0006.49
2023-03-03 04:57:00,,0815.0,5.01,0.00,22.5,22.4,00.0,31.1,24.4,13.5,-001.7,0012.25,0006.95,0006.48
2023-03-03 04:58:00,,0815.2,5.00,0.00,22.5,22.0,00.0,31.1,24.3,13.4,-002.1,0012.28,0006.92,0006.47
2023-03-03 04:59:00,,0815.0,5.01,0.00,22.5,21.7,00.0,31.2,24.3,13.4,-002.1,0012.43,0006.90,0006.46
